Starlink 5935

operational
NORAD ID: 56453 Int'l Des: 2023-064 Owner: SPXS Country: US Constellation: starlink
LEOCIRCULAR

关于 Starlink 5935

正在加载描述...

实时位置

正在加载3D地球...

即将过境

高度历史

Altitude vs Time

uPlot chart will show altitude changes over time

两行轨道根数

1 56453U 23064F 26035.78078756 .00000254 00000-0 29037-4 0 9998
2 56453 69.9988 227.5490 0002678 269.1353 90.9500 14.98329905150318
Epoch: Feb 4, 2026 • Age: 7 hours

当前状态

高度 575.2 km
速度 7.57 km/s
星下点 -6.01°S, 115.91°W
发射日期 May 10, 2023
运行时间 2.7 years
类型 internet

技术详情

分类 Payload
质量 305.00 kg
干质量 290.00 kg
总质量 305.00 kg
长度 0.20 m
直径 2.80 m
跨度 9.00 m
形状 Box + pan
制造商 SPXS
平台类型 Starlink
阶段状态 In Orbit
所有者/国家 SPXS/US

大型星座

Loading constellations...